Location: Mesa
(33.4220°N, 111.8220°W)
Time: 23:08:36
(UTC-07:00)

N. Korean satellite - Pass Details

Date: 26 November 2019
Orbit: 456 x 506 km, 97.2° (Epoch: 06 December)

Event Time Altitude Azimuth Distance (km) Brightness Sun altitude
Rises 05:37:21 0° 25° (NNE) 2,579 10.4 -18.8°
Reaches altitude 10° 05:39:42 10° 39° (NE) 1,683 9.6 -18.3°
Maximum altitude 05:42:44 25° 96° (E) 1,017 9.0 -17.7°
Drops below altitude 10° 05:45:42 10° 153° (SSE) 1,648 9.8 -17.1°
Sets 05:47:59 0° 167° (SSE) 2,512 10.6 -16.7°
